| time (UTC) | temp C | wind direction | speed KPH | gust KPH | rain 1hr cm | rain 24hr cm | rain mn cm | humidity % | barometer mb |
| 20260502204016 | 17 | 68 | 9.7 | 19.3 | 0.00 | 0.00 | 0.00 | 86 | 1017.9 |
| 20260502203516 | 17 | 68 | 6.4 | 20.9 | 0.00 | 0.00 | 0.00 | 86 | 1017.9 |
| 20260502203016 | 17 | 68 | 11.3 | 20.9 | 0.00 | 0.00 | 0.00 | 86 | 1018.1 |
| 20260502202536 | 17 | 68 | 9.7 | 20.9 | 0.00 | 0.00 | 0.00 | 87 | 1017.9 |
| 20260502202016 | 17 | 68 | 11.3 | 19.3 | 0.00 | 0.00 | 0.00 | 87 | 1017.9 |
| 20260502201516 | 17 | 45 | 8.0 | 19.3 | 0.00 | 0.00 | 0.00 | 87 | 1017.7 |
| 20260502201016 | 17 | 45 | 12.9 | 22.5 | 0.00 | 0.00 | 0.00 | 87 | 1017.8 |
| 20260502200516 | 17 | 45 | 8.0 | 17.7 | 0.00 | 0.00 | 0.00 | 87 | 1017.7 |
| 20260502200016 | 17 | 68 | 12.9 | 24.1 | 0.00 | 0.00 | 0.00 | 87 | 1017.6 |
| 20260502195516 | 17 | 68 | 8.0 | 20.9 | 0.00 | 0.00 | 0.00 | 87 | 1017.7 |
| 20260502195016 | 17 | 68 | 12.9 | 22.5 | 0.00 | 0.00 | 0.00 | 87 | 1017.5 |
| 20260502194516 | 17 | 68 | 11.3 | 20.9 | 0.00 | 0.00 | 0.00 | 87 | 1017.5 |
| 20260502194016 | 17 | 68 | 6.4 | 19.3 | 0.00 | 0.00 | 0.00 | 87 | 1017.4 |
| 20260502193536 | 17 | 68 | 9.7 | 19.3 | 0.00 | 0.00 | 0.00 | 87 | 1017.4 |
| 20260502193016 | 17 | 68 | 8.0 | 14.5 | 0.00 | 0.00 | 0.00 | 87 | 1017.5 |
| 20260502192516 | 17 | 90 | 8.0 | 20.9 | 0.00 | 0.00 | 0.00 | 87 | 1017.6 |
| 20260502192016 | 17 | 90 | 9.7 | 19.3 | 0.00 | 0.00 | 0.00 | 87 | 1017.7 |
| 20260502191516 | 17 | 68 | 14.5 | 22.5 | 0.00 | 0.00 | 0.00 | 87 | 1017.5 |
| 20260502191016 | 17 | 68 | 14.5 | 22.5 | 0.00 | 0.00 | 0.00 | 87 | 1017.4 |
| 20260502190516 | 17 | 68 | 6.4 | 14.5 | 0.00 | 0.00 | 0.00 | 87 | 1017.4 |
| 20260502190016 | 17 | 68 | 11.3 | 17.7 | 0.00 | 0.00 | 0.00 | 87 | 1017.4 |
| 20260502185536 | 17 | 68 | 9.7 | 20.9 | 0.00 | 0.00 | 0.00 | 86 | 1017.2 |
| 20260502185036 | 18 | 68 | 11.3 | 20.9 | 0.00 | 0.00 | 0.00 | 86 | 1017.3 |
| 20260502184516 | 18 | 68 | 11.3 | 22.5 | 0.00 | 0.00 | 0.00 | 85 | 1017.3 |
| 20260502184016 | 18 | 68 | 11.3 | 22.5 | 0.00 | 0.00 | 0.00 | 85 | 1017.3 |
| 20260502183516 | 18 | 45 | 11.3 | 22.5 | 0.00 | 0.00 | 0.00 | 85 | 1017.4 |
| 20260502183016 | 18 | 45 | 9.7 | 19.3 | 0.00 | 0.00 | 0.00 | 85 | 1017.5 |
| 20260502182516 | 18 | 90 | 12.9 | 24.1 | 0.00 | 0.00 | 0.00 | 85 | 1017.4 |
| 20260502182016 | 18 | 68 | 9.7 | 19.3 | 0.00 | 0.00 | 0.00 | 85 | 1017.5 |
| 20260502181516 | 18 | 45 | 12.9 | 22.5 | 0.00 | 0.00 | 0.00 | 85 | 1017.4 |
| 20260502181016 | 18 | 68 | 9.7 | 24.1 | 0.00 | 0.00 | 0.00 | 85 | 1017.7 |
| 20260502180516 | 18 | 68 | 6.4 | 17.7 | 0.00 | 0.00 | 0.00 | 84 | 1017.8 |
| 20260502170516 | 18 | 90 | 12.9 | 20.9 | 0.00 | 0.00 | 0.00 | 83 | 1018.0 |
| 20260502164016 | 18 | 68 | 12.9 | 20.9 | 0.00 | 0.00 | 0.00 | 82 | 1018.0 |
| 20260502163516 | 18 | 90 | 9.7 | 19.3 | 0.00 | 0.00 | 0.00 | 82 | 1018.0 |
| 20260502163016 | 18 | 68 | 17.7 | 22.5 | 0.00 | 0.00 | 0.00 | 81 | 1018.0 |
| 20260502162516 | 18 | 90 | 12.9 | 19.3 | 0.00 | 0.00 | 0.00 | 81 | 1018.4 |
| 20260502162036 | 18 | 90 | 11.3 | 20.9 | 0.00 | 0.00 | 0.00 | 82 | 1018.4 |
| 20260502161516 | 18 | 68 | 16.1 | 22.5 | 0.00 | 0.00 | 0.00 | 81 | 1018.3 |
| 20260502161016 | 19 | 68 | 12.9 | 19.3 | 0.00 | 0.00 | 0.00 | 81 | 1018.3 |
| 20260502160516 | 19 | 90 | 11.3 | 19.3 | 0.00 | 0.00 | 0.00 | 81 | 1018.6 |
| 20260502152056 | 19 | 90 | 17.7 | 24.1 | 0.00 | 0.00 | 0.00 | 80 | 1018.6 |
| 20260502151535 | 19 | 90 | 14.5 | 20.9 | 0.00 | 0.00 | 0.00 | 80 | 1018.8 |
| 20260502151016 | 19 | 90 | 12.9 | 19.3 | 0.00 | 0.00 | 0.00 | 80 | 1019.0 |
| 20260502150515 | 19 | 90 | 16.1 | 20.9 | 0.00 | 0.00 | 0.00 | 79 | 1019.0 |
| 20260502130515 | 20 | 68 | 20.9 | 29.0 | 0.00 | 0.00 | 0.00 | 78 | 1020.0 |
| 20260502123515 | 20 | 45 | 17.7 | 33.8 | 0.00 | 0.00 | 0.00 | 76 | 1020.1 |
| 20260502123015 | 20 | 68 | 14.5 | 22.5 | 0.00 | 0.00 | 0.00 | 77 | 1020.2 |
| 20260502122515 | 20 | 68 | 12.9 | 22.5 | 0.00 | 0.00 | 0.00 | 78 | 1020.5 |
| 20260502122015 | 20 | 90 | 12.9 | 24.1 | 0.00 | 0.00 | 0.00 | 78 | 1020.7 |
| 20260502121515 | 20 | 68 | 16.1 | 25.7 | 0.00 | 0.00 | 0.00 | 78 | 1020.7 |
| 20260502121015 | 20 | 90 | 17.7 | 24.1 | 0.00 | 0.00 | 0.00 | 78 | 1020.7 |
| 20260502120515 | 20 | 68 | 14.5 | 29.0 | 0.00 | 0.00 | 0.00 | 79 | 1020.7 |
| 20260502115515 | 19 | 68 | 19.3 | 30.6 | 0.00 | 0.00 | 0.00 | 79 | 1020.7 |
| 20260502115015 | 19 | 68 | 19.3 | 29.0 | 0.00 | 0.00 | 0.00 | 80 | 1020.7 |
| 20260502114515 | 19 | 90 | 17.7 | 27.4 | 0.00 | 0.00 | 0.00 | 81 | 1020.8 |
| 20260502114015 | 19 | 68 | 16.1 | 25.7 | 0.00 | 0.00 | 0.00 | 80 | 1020.8 |
| 20260502113515 | 19 | 68 | 16.1 | 27.4 | 0.00 | 0.00 | 0.00 | 81 | 1020.8 |
| 20260502113015 | 19 | 68 | 20.9 | 30.6 | 0.00 | 0.00 | 0.00 | 80 | 1020.7 |
| 20260502112515 | 20 | 68 | 17.7 | 27.4 | 0.00 | 0.00 | 0.00 | 79 | 1020.7 |
| 20260502112015 | 20 | 68 | 17.7 | 25.7 | 0.00 | 0.00 | 0.00 | 78 | 1020.8 |
| 20260502111515 | 20 | 68 | 16.1 | 24.1 | 0.00 | 0.00 | 0.00 | 78 | 1021.0 |
| 20260502111015 | 20 | 68 | 17.7 | 29.0 | 0.00 | 0.00 | 0.00 | 79 | 1021.0 |
| 20260502110515 | 20 | 68 | 16.1 | 25.7 | 0.00 | 0.00 | 0.00 | 78 | 1021.0 |
| 20260502110015 | 20 | 90 | 17.7 | 27.4 | 0.00 | 0.00 | 0.00 | 78 | 1021.0 |
| 20260502105515 | 19 | 90 | 20.9 | 27.4 | 0.00 | 0.00 | 0.00 | 78 | 1021.0 |
| 20260502105015 | 19 | 68 | 20.9 | 29.0 | 0.00 | 0.00 | 0.00 | 78 | 1021.0 |
| 20260502104517 | 19 | 68 | 19.3 | 29.0 | 0.00 | 0.00 | 0.00 | 79 | 1021.1 |
| 20260502104037 | 19 | 90 | 19.3 | 27.4 | 0.00 | 0.00 | 0.00 | 79 | 1021.1 |
| 20260502103517 | 19 | 68 | 19.3 | 27.4 | 0.00 | 0.00 | 0.00 | 79 | 1021.2 |
| 20260502103037 | 19 | 68 | 16.1 | 24.1 | 0.00 | 0.00 | 0.00 | 79 | 1021.2 |
| 20260502102517 | 19 | 68 | 19.3 | 25.7 | 0.00 | 0.00 | 0.00 | 79 | 1021.4 |
| 20260502102057 | 19 | 90 | 19.3 | 25.7 | 0.00 | 0.00 | 0.00 | 78 | 1021.5 |
| 20260502101517 | 20 | 90 | 17.7 | 25.7 | 0.00 | 0.00 | 0.00 | 78 | 1021.5 |
| 20260502101037 | 20 | 90 | 16.1 | 20.9 | 0.00 | 0.00 | 0.00 | 78 | 1021.5 |
| 20260502100517 | 19 | 90 | 14.5 | 25.7 | 0.00 | 0.00 | 0.00 | 78 | 1021.5 |
| 20260502091517 | 19 | 68 | 19.3 | 27.4 | 0.00 | 0.00 | 0.00 | 79 | 1021.9 |
| 20260502091017 | 19 | 68 | 14.5 | 24.1 | 0.00 | 0.00 | 0.00 | 80 | 1021.8 |
| 20260502090517 | 19 | 68 | 14.5 | 24.1 | 0.00 | 0.00 | 0.00 | 80 | 1021.6 |
| 20260502071517 | 18 | 68 | 8.0 | 16.1 | 0.00 | 0.00 | 0.00 | 81 | 1021.6 |
| 20260502071017 | 18 | 68 | 6.4 | 14.5 | 0.00 | 0.00 | 0.00 | 81 | 1021.7 |
| 20260502070517 | 18 | 45 | 6.4 | 14.5 | 0.00 | 0.00 | 0.00 | 80 | 1021.7 |
| 20260502070037 | 18 | 68 | 4.8 | 12.9 | 0.00 | 0.00 | 0.00 | 80 | 1021.7 |
| 20260502065537 | 18 | 68 | 6.4 | 16.1 | 0.00 | 0.00 | 0.00 | 80 | 1021.7 |
| 20260502065037 | 18 | 68 | 6.4 | 12.9 | 0.00 | 0.00 | 0.00 | 80 | 1021.7 |
| 20260502064517 | 18 | 68 | 8.0 | 14.5 | 0.00 | 0.00 | 0.00 | 80 | 1021.7 |
| 20260502064037 | 18 | 45 | 4.8 | 9.7 | 0.00 | 0.00 | 0.00 | 80 | 1021.6 |
| 20260502063517 | 18 | 45 | 3.2 | 9.7 | 0.00 | 0.00 | 0.00 | 81 | 1021.5 |
| 20260502063017 | 18 | 68 | 3.2 | 8.0 | 0.00 | 0.00 | 0.00 | 81 | 1021.5 |
| 20260502062517 | 18 | 45 | 3.2 | 6.4 | 0.00 | 0.00 | 0.00 | 82 | 1021.5 |
| 20260502062037 | 17 | 0.0 | 1.6 | 0.00 | 0.00 | 0.00 | 82 | 1021.6 | |
| 20260502061517 | 17 | 23 | 1.6 | 4.8 | 0.00 | 0.00 | 0.00 | 82 | 1021.6 |
| 20260502061017 | 17 | 23 | 1.6 | 8.0 | 0.00 | 0.00 | 0.00 | 83 | 1021.6 |
| 20260502060517 | 17 | 23 | 1.6 | 8.0 | 0.00 | 0.00 | 0.00 | 83 | 1021.4 |
| 20260502060037 | 17 | 0.0 | 3.2 | 0.00 | 0.00 | 0.00 | 83 | 1021.4 | |
| 20260502055517 | 17 | 0.0 | 0.0 | 0.00 | 0.00 | 0.00 | 84 | 1021.4 | |
| 20260502055017 | 17 | 0.0 | 0.0 | 0.00 | 0.00 | 0.00 | 84 | 1021.4 | |
| 20260502054517 | 17 | 0.0 | 0.0 | 0.00 | 0.00 | 0.00 | 85 | 1021.4 | |
| 20260502054017 | 17 | 0.0 | 3.2 | 0.00 | 0.00 | 0.00 | 85 | 1021.4 | |
| 20260502053516 | 17 | 0.0 | 0.0 | 0.00 | 0.00 | 0.00 | 86 | 1021.4 | |
| 20260502053016 | 17 | 0.0 | 0.0 | 0.00 | 0.00 | 0.00 | 86 | 1021.4 | |
| 20260502052536 | 17 | 0.0 | 0.0 | 0.00 | 0.00 | 0.00 | 86 | 1021.4 | |
| 20260502052017 | 17 | 0.0 | 3.2 | 0.00 | 0.00 | 0.00 | 87 | 1021.4 | |
| 20260502051516 | 17 | 0.0 | 0.0 | 0.00 | 0.00 | 0.00 | 87 | 1021.3 | |
| 20260502051017 | 17 | 0.0 | 0.0 | 0.00 | 0.00 | 0.00 | 87 | 1021.3 | |
| 20260502050516 | 17 | 0.0 | 3.2 | 0.00 | 0.00 | 0.00 | 87 | 1021.3 | |
| 20260502050016 | 17 | 0.0 | 3.2 | 0.00 | 0.00 | 0.00 | 87 | 1021.3 | |
| 20260502045516 | 17 | 0.0 | 1.6 | 0.00 | 0.00 | 0.00 | 87 | 1021.2 | |
| 20260502045016 | 17 | 0.0 | 0.0 | 0.00 | 0.00 | 0.00 | 88 | 1021.2 | |
| 20260502044517 | 17 | 0.0 | 0.0 | 0.00 | 0.00 | 0.00 | 88 | 1021.1 | |
| 20260502044017 | 17 | 0.0 | 0.0 | 0.00 | 0.00 | 0.00 | 88 | 1021.2 | |
| 20260502043536 | 17 | 0.0 | 0.0 | 0.00 | 0.00 | 0.00 | 88 | 1021.1 | |
| 20260502043016 | 17 | 0.0 | 0.0 | 0.00 | 0.00 | 0.00 | 88 | 1021.0 | |
| 20260502042517 | 17 | 0.0 | 0.0 | 0.00 | 0.00 | 0.00 | 88 | 1021.0 | |
| 20260502042017 | 17 | 293 | 1.6 | 4.8 | 0.00 | 0.00 | 0.00 | 88 | 1021.1 |
| 20260502041556 | 17 | 293 | 3.2 | 4.8 | 0.00 | 0.00 | 0.00 | 88 | 1021.2 |
| 20260502041016 | 17 | 315 | 1.6 | 3.2 | 0.00 | 0.00 | 0.00 | 88 | 1021.3 |
| 20260502040536 | 17 | 315 | 1.6 | 3.2 | 0.00 | 0.00 | 0.00 | 88 | 1021.4 |
| 20260502040017 | 17 | 0.0 | 3.2 | 0.00 | 0.00 | 0.00 | 88 | 1021.4 | |
| 20260502035517 | 17 | 0.0 | 3.2 | 0.00 | 0.00 | 0.00 | 88 | 1021.4 | |
| 20260502035016 | 17 | 338 | 3.2 | 4.8 | 0.00 | 0.00 | 0.00 | 88 | 1021.4 |
| 20260502034517 | 17 | 338 | 1.6 | 4.8 | 0.00 | 0.00 | 0.00 | 88 | 1021.4 |
| 20260502034016 | 17 | 338 | 1.6 | 6.4 | 0.00 | 0.00 | 0.00 | 88 | 1021.5 |
| 20260502033516 | 17 | 0.0 | 4.8 | 0.00 | 0.00 | 0.00 | 88 | 1021.6 | |
| 20260502033017 | 17 | 0 | 1.6 | 4.8 | 0.00 | 0.00 | 0.00 | 88 | 1021.7 |
| 20260502032536 | 17 | 0.0 | 4.8 | 0.00 | 0.00 | 0.00 | 88 | 1021.7 | |
| 20260502032016 | 17 | 0.0 | 0.0 | 0.00 | 0.00 | 0.00 | 88 | 1021.6 | |
| 20260502031517 | 17 | 270 | 3.2 | 4.8 | 0.00 | 0.00 | 0.00 | 88 | 1021.7 |
| 20260502031016 | 17 | 270 | 1.6 | 4.8 | 0.00 | 0.00 | 0.00 | 88 | 1021.6 |
| 20260502030517 | 17 | 0.0 | 3.2 | 0.00 | 0.00 | 0.00 | 88 | 1021.6 | |
| 20260502030016 | 17 | 0.0 | 3.2 | 0.00 | 0.00 | 0.00 | 88 | 1021.7 | |
| 20260502025516 | 17 | 270 | 3.2 | 4.8 | 0.00 | 0.00 | 0.00 | 88 | 1021.7 |
| 20260502025016 | 17 | 293 | 3.2 | 4.8 | 0.00 | 0.00 | 0.00 | 88 | 1021.7 |
| 20260502024536 | 17 | 0 | 1.6 | 3.2 | 0.00 | 0.00 | 0.00 | 88 | 1021.7 |
| 20260502024036 | 17 | 0.0 | 1.6 | 0.00 | 0.00 | 0.00 | 88 | 1021.5 | |
| 20260502023516 | 17 | 0.0 | 1.6 | 0.00 | 0.00 | 0.00 | 88 | 1021.5 | |
| 20260502023056 | 17 | 0.0 | 0.0 | 0.00 | 0.00 | 0.00 | 88 | 1021.5 | |
| 20260502022516 | 17 | 0.0 | 0.0 | 0.00 | 0.00 | 0.00 | 88 | 1021.4 | |
| 20260502022016 | 17 | 0.0 | 0.0 | 0.00 | 0.00 | 0.00 | 88 | 1021.4 | |
| 20260502021516 | 17 | 0.0 | 0.0 | 0.00 | 0.00 | 0.00 | 88 | 1021.5 | |
| 20260502021016 | 17 | 0.0 | 0.0 | 0.00 | 0.00 | 0.00 | 88 | 1021.7 | |
| 20260502020516 | 17 | 0.0 | 0.0 | 0.00 | 0.00 | 0.00 | 88 | 1021.7 | |
| 20260502020016 | 17 | 0.0 | 0.0 | 0.00 | 0.00 | 0.00 | 88 | 1021.7 | |
| 20260502015516 | 17 | 0.0 | 1.6 | 0.00 | 0.00 | 0.00 | 88 | 1021.7 | |
| 20260502015016 | 17 | 0.0 | 1.6 | 0.00 | 0.00 | 0.00 | 88 | 1021.6 | |
| 20260502014516 | 17 | 0.0 | 3.2 | 0.00 | 0.00 | 0.00 | 88 | 1021.6 | |
| 20260502014016 | 17 | 45 | 1.6 | 3.2 | 0.00 | 0.00 | 0.00 | 88 | 1021.7 |
| 20260502013516 | 17 | 0.0 | 3.2 | 0.00 | 0.00 | 0.00 | 88 | 1021.8 | |
| 20260502013016 | 17 | 0.0 | 3.2 | 0.00 | 0.00 | 0.00 | 88 | 1021.9 | |
| 20260502012516 | 17 | 0.0 | 3.2 | 0.00 | 0.00 | 0.00 | 88 | 1021.8 | |
| 20260502012016 | 17 | 0.0 | 4.8 | 0.00 | 0.00 | 0.00 | 88 | 1021.9 | |
| 20260502011516 | 17 | 0.0 | 0.0 | 0.00 | 0.00 | 0.00 | 88 | 1022.0 | |
| 20260502011016 | 17 | 0.0 | 0.0 | 0.00 | 0.00 | 0.00 | 88 | 1022.1 | |
| 20260502010516 | 17 | 0.0 | 0.0 | 0.00 | 0.00 | 0.00 | 88 | 1022.1 | |
| 20260502010036 | 17 | 0.0 | 3.2 | 0.00 | 0.00 | 0.00 | 88 | 1022.1 | |
| 20260502005516 | 17 | 0.0 | 0.0 | 0.00 | 0.00 | 0.00 | 88 | 1022.3 | |
| 20260502005016 | 17 | 0.0 | 1.6 | 0.00 | 0.00 | 0.00 | 88 | 1022.4 | |
| 20260502004516 | 17 | 0.0 | 0.0 | 0.00 | 0.00 | 0.00 | 88 | 1022.4 | |
| 20260502004016 | 17 | 0.0 | 0.0 | 0.00 | 0.00 | 0.00 | 88 | 1022.5 | |
| 20260502003516 | 17 | 0.0 | 0.0 | 0.00 | 0.00 | 0.00 | 88 | 1022.5 | |
| 20260502003016 | 17 | 0.0 | 0.0 | 0.00 | 0.00 | 0.00 | 88 | 1022.6 | |
| 20260502002516 | 17 | 0.0 | 0.0 | 0.00 | 0.00 | 0.00 | 88 | 1022.6 | |
| 20260502002036 | 17 | 0.0 | 0.0 | 0.00 | 0.00 | 0.00 | 88 | 1022.7 | |
| 20260502001516 | 17 | 0.0 | 0.0 | 0.00 | 0.00 | 0.00 | 88 | 1022.8 | |
| 20260502001016 | 17 | 0.0 | 3.2 | 0.00 | 0.00 | 0.00 | 88 | 1022.9 | |
| 20260502000536 | 17 | 0.0 | 0.0 | 0.00 | 0.00 | 0.00 | 88 | 1022.9 | |
| 20260502000016 | 17 | 0.0 | 0.0 | 0.00 | 0.00 | 0.00 | 88 | 1023.0 | |
| 20260501235516 | 17 | 0.0 | 0.0 | 0.00 | 0.00 | 0.00 | 88 | 1023.0 | |
| 20260501235016 | 17 | 0.0 | 0.0 | 0.00 | 0.00 | 0.00 | 88 | 1023.0 | |
| 20260501234516 | 17 | 0.0 | 0.0 | 0.00 | 0.00 | 0.00 | 88 | 1023.0 | |
| 20260501234016 | 17 | 0.0 | 0.0 | 0.00 | 0.03 | 0.00 | 88 | 1023.1 | |
| 20260501233516 | 17 | 0.0 | 0.0 | 0.00 | 0.03 | 0.00 | 89 | 1023.1 | |
| 20260501233016 | 17 | 0.0 | 0.0 | 0.00 | 0.03 | 0.00 | 88 | 1023.2 | |
| 20260501232516 | 17 | 0.0 | 0.0 | 0.00 | 0.03 | 0.00 | 88 | 1023.2 | |
| 20260501232016 | 17 | 0.0 | 0.0 | 0.00 | 0.03 | 0.00 | 88 | 1023.2 | |
| 20260501231516 | 17 | 0.0 | 0.0 | 0.00 | 0.03 | 0.00 | 88 | 1023.2 | |
| 20260501231016 | 17 | 0.0 | 1.6 | 0.00 | 0.03 | 0.00 | 88 | 1023.1 | |
| 20260501230516 | 17 | 0.0 | 0.0 | 0.00 | 0.03 | 0.00 | 88 | 1023.1 | |
| 20260501230016 | 17 | 0.0 | 3.2 | 0.00 | 0.03 | 0.00 | 88 | 1023.0 | |
| 20260501225516 | 17 | 68 | 1.6 | 4.8 | 0.00 | 0.03 | 0.00 | 88 | 1023.0 |
| 20260501225016 | 17 | 68 | 4.8 | 8.0 | 0.00 | 0.03 | 0.00 | 88 | 1023.0 |
| 20260501224516 | 17 | 90 | 3.2 | 6.4 | 0.00 | 0.03 | 0.00 | 88 | 1023.0 |
| 20260501224016 | 17 | 90 | 1.6 | 4.8 | 0.00 | 0.03 | 0.00 | 88 | 1023.2 |
| 20260501223516 | 17 | 90 | 3.2 | 11.3 | 0.00 | 0.03 | 0.00 | 88 | 1023.1 |
| 20260501223016 | 17 | 90 | 6.4 | 12.9 | 0.00 | 0.03 | 0.00 | 88 | 1023.1 |
| 20260501222516 | 17 | 68 | 6.4 | 14.5 | 0.00 | 0.03 | 0.00 | 87 | 1023.0 |
| 20260501222016 | 17 | 68 | 4.8 | 11.3 | 0.00 | 0.03 | 0.00 | 88 | 1023.0 |
| 20260501221516 | 17 | 68 | 6.4 | 14.5 | 0.00 | 0.03 | 0.00 | 87 | 1023.0 |
| 20260501221036 | 17 | 68 | 8.0 | 14.5 | 0.00 | 0.03 | 0.00 | 87 | 1023.0 |
| 20260501220516 | 17 | 68 | 12.9 | 17.7 | 0.00 | 0.03 | 0.00 | 87 | 1023.0 |
| 20260501220036 | 17 | 68 | 9.7 | 19.3 | 0.00 | 0.03 | 0.03 | 87 | 1023.1 |
| 20260501215517 | 17 | 90 | 8.0 | 16.1 | 0.00 | 0.03 | 0.03 | 87 | 1023.1 |
| 20260501215017 | 17 | 68 | 8.0 | 14.5 | 0.00 | 0.03 | 0.03 | 87 | 1023.2 |
| 20260501214517 | 17 | 68 | 6.4 | 12.9 | 0.00 | 0.03 | 0.03 | 87 | 1023.2 |
| 20260501214037 | 17 | 68 | 6.4 | 12.9 | 0.00 | 0.03 | 0.03 | 87 | 1023.2 |
| 20260501213517 | 18 | 68 | 8.0 | 12.9 | 0.00 | 0.03 | 0.03 | 87 | 1023.3 |
| 20260501213037 | 18 | 90 | 4.8 | 8.0 | 0.00 | 0.03 | 0.03 | 86 | 1023.4 |
| 20260501212517 | 18 | 90 | 6.4 | 14.5 | 0.00 | 0.03 | 0.03 | 86 | 1023.4 |
| 20260501212017 | 18 | 68 | 8.0 | 12.9 | 0.00 | 0.03 | 0.03 | 86 | 1023.5 |
| 20260501211537 | 18 | 90 | 8.0 | 14.5 | 0.00 | 0.03 | 0.03 | 86 | 1023.5 |
| 20260501211037 | 18 | 68 | 4.8 | 11.3 | 0.00 | 0.03 | 0.03 | 86 | 1023.4 |
| 20260501210517 | 18 | 90 | 8.0 | 14.5 | 0.00 | 0.03 | 0.03 | 86 | 1023.2 |
| 20260501210017 | 18 | 90 | 6.4 | 12.9 | 0.00 | 0.03 | 0.03 | 86 | 1023.2 |
| 20260501205516 | 18 | 68 | 8.0 | 16.1 | 0.00 | 0.03 | 0.03 | 86 | 1023.1 |
| 20260501205016 | 18 | 45 | 4.8 | 12.9 | 0.00 | 0.03 | 0.03 | 86 | 1023.1 |
| 20260501204517 | 18 | 0.0 | 3.2 | 0.00 | 0.03 | 0.03 | 86 | 1023.1 |